Torna al catalogo

CZ-6 R/B

AttivoPO
NORAD 49061·ROCKET BODY·🇨🇳 China

Lanciato Aug 4, 2021 da Taiyuan Satellite Launch Center

Loading…

Prossimi Passaggi (prossime 24 ore)

TLE

AggiornatoSource: Space-Track

Epoca: Sep 14, 2026, 07:28 UTC

1 49061U 21070C   26257.31133955  .00000206  00000-0  37315-4 0  9993
2 49061  89.0588 200.5612 0210697 194.2984 165.2204 14.48710419270006

Traccia CZ-6 R/B in tempo reale con AllMySat

Download on the App Store